Regional Weather Roundup
Issued by NWS Columbia, SC

Home | Current Version | Previous Version | Text Only | Print | Product List | Glossary On
Versions: 1 2 3 4 5 6 7 8 9 10 11 12 13 14 15 16 17 18 19 20 21 22 23 24 25 26 27 28
000
ASUS42 KCAE 100210
RWRCAE
REGIONAL WEATHER ROUNDUP
NATIONAL WEATHER SERVICE COLUMBIA SC
900 PM EST FRI DEC 09 2016

NOTE: "FAIR" INDICATES FEW OR NO CLOUDS BELOW 12,000 FEET WITH NO
SIGNIFICANT WEATHER AND/OR OBSTRUCTIONS TO VISIBILITY.

NOT ALL STATIONS ARE QUALITY CONTROLLED BY THE NATIONAL
WEATHER SERVICE. USE DATA WITH CAUTION...ESPECIALLY
DEWPOINT OBSERVATIONS.

SCZ001>056-GAZ040-063>065-077-100300-
...UPSTATE SOUTH CAROLINA...

CITY           SKY/WX    TMP DP  RH WIND       PRES   REMARKS
ANDERSON       CLEAR     34  15  46 NE7       30.44R WCI  28
LIBERTY        CLEAR     32  15  50 E5        30.42R WCI  27
SPARTANBURG    CLEAR     32  14  47 N6        30.45R WCI  26
CLEMSON        CLEAR     36  17  46 NE6       30.44R WCI  31
GREENVILLE     CLEAR     35  11  36 NE10      30.44R WCI  27
GREENWOOD      CLEAR     28  19  69 CALM      30.46R
GREER          CLEAR     33  10  38 N7        30.44R WCI  27
ROCK HILL      CLEAR     31  16  54 CALM      30.46R
CHESTER        CLEAR     30  18  59 N6        30.46R WCI  24
LAURENS          N/A     30  21  69 CALM      30.45R


...CENTRAL SOUTH CAROLINA...

CITY           SKY/WX    TMP DP  RH WIND       PRES   REMARKS
COLUMBIA APT   CLEAR     31  25  78 S5        30.46R WCI  26
COLUMBIA OWENS CLEAR     34  26  72 CALM      30.47R
MCENTIRE ANGB  CLEAR     30  26  84 CALM      30.47R
ORANGEBURG     CLEAR     32  27  81 CALM      30.47R
SUMTER SHAW    CLEAR     35  21  55 CALM      30.45R
NEWBERRY       CLEAR     30  23  74 CALM      30.48S
AIKEN          FAIR      30  27  86 CALM      30.48S
MANNING        FAIR      30  27  86 CALM      30.48R
LANCASTER      CLEAR     28  19  69 CALM      30.47R
WINNSBORO      CLEAR     32  23  69 CALM      30.45R


...EASTERN AND COASTAL SOUTH CAROLINA...

CITY           SKY/WX    TMP DP  RH WIND       PRES   REMARKS
N MYRTLE BCH   CLEAR     32  28  85 CALM      30.46R
CONWAY         FAIR      28  27  93 CALM      30.47R
MARION         FAIR      32  27  80 CALM      30.48R
HARTSVILLE     FAIR      30  23  74 CALM      30.46R
FLORENCE       CLEAR     32  22  66 N3        30.47R
DARLINGTON     CLEAR     28  25  88 CALM      30.48R
CHARLESTON APT CLEAR     38  25  59 NE5       30.47R WCI  34
WALTERBORO     CLEAR     32  32 100 CALM      30.48R
BEAUFORT       CLEAR     39  28  64 N7        30.46R WCI  34
HILTON HEAD    CLEAR     45  23  42 N8G15     30.47R


...EASTERN GEORGIA...

CITY           SKY/WX    TMP DP  RH WIND       PRES   REMARKS
AUGUSTA BUSH F CLEAR     30  25  81 CALM      30.45F
AUGUSTA DANIEL CLEAR     41  16  36 NE5       30.45S
THOMSON        CLEAR     31  29  90 CALM      30.49S
WASHINGTON     FAIR      34  32  93 CALM      30.44R
CLAXTON        FAIR      34  34 100 CALM      30.46S
SYLVANIA       CLEAR    N/A N/A N/A CALM      30.47R
STATESBORO     CLEAR     33  32  96 CALM      30.46S
SAVANNAH       PTCLDY    39  29  67 CALM      30.47R


...SOUTHERN NORTH CAROLINA...

CITY           SKY/WX    TMP DP  RH WIND       PRES   REMARKS
CHARLOTTE      CLEAR     31  13  47 N3        30.46R
MONROE         CLEAR     32  15  49 NE7       30.45R WCI  26
WADESBORO      CLEAR     26  21  80 CALM      30.47R
ROCKINGHAM     CLEAR     29  21  70 CALM      30.46R
RUTHERFORDTON  CLEAR     30  12  48 N5        30.45R WCI  25
ASHEVILLE      CLEAR     24  12  60 NW8       30.43R WCI  15

$$




USA.gov is the U.S. government's official web portal to all federal, state and local government web resources and services.